Weather History for Fargo, ND

Change the Weather History Date:

Thursday, April 10, 2014

  Actual Average Record
Temperature  
Mean Temperature 48 °F 41 °F  
Max Temperature 59 °F 53 °F 85 °F (1910)
Min Temperature 36 °F 30 °F 9 °F (1973)
Degree Days  
Heating Degree Days 17 24  
Month to date heating degree days 264 262  
Since 1 July heating degree days 8857 8092  
Cooling Degree Days 0 0  
Month to date cooling degree days 0 0  
Year to date cooling degree days 0 0  
Moisture  
Dew Point 28 °F    
Average Humidity 49    
Maximum Humidity 70    
Minimum Humidity 28    
Precipitation  
Precipitation 0.00 in 0.03 in 2.00 in (1902)
Month to date precipitation 0.23 0.39  
Year to date precipitation 1.83 3.00  
Snow  
Snow 0.00 in 0.10 in 6.00 in (2000)
Month to date snowfall 0.5 1.3  
Since 1 July snowfall 33.4 48.4  
Snow Depth 0.00 in    
Sea Level Pressure  
Sea Level Pressure 29.80 in    
Wind  
Wind Speed 16 mph (WNW)    
Max Wind Speed 30 mph    
Max Gust Speed 39 mph    
Visibility 10 miles    
Events Rain    
T = Trace of Precipitation, MM = Missing Value Source: NWS Daily Summary

Daily Weather History Graph

Daily Weather History Graph

Search for Another Location

Airport:

Trip Planner

Search our weather history database for the weather conditions in past years. The results will help you decide how hot, cold, wet, or windy it might be!

Date:

Astronomy

Apr. 10, 2014 Rise Set
Actual Time 6:48 AM CDT 8:08 PM CDT
Civil Twilight 6:17 AM CDT 8:40 PM CDT
Nautical Twilight 5:39 AM CDT 9:18 PM CDT
Astronomical Twilight 4:59 AM CDT 9:59 PM CDT
Moon 3:38 PM CDT (4/10) 4:29 AM CDT (4/10)
Length of Visible Light 14h 22m
Length of Day
13h 20m
Waxing Gibbous, 80% of the Moon is Illuminated
Apr 10
Waxing Gibbous
Apr 15
Full
Apr 22
Last Quarter
Apr 29
New
May 6
First Quarter

Hourly Weather History & Observations

Time (CDT) Temp. Windchill Dew Point Humidity Pressure Visibility Wind Dir Wind Speed Gust Speed Precip Events Conditions
12:53 AM 43.0 °F 37.7 °F 33.1 °F 68% 29.70 in 10.0 mi WNW 9.2 mph - N/A   Clear
1:53 AM 41.0 °F 33.9 °F 30.9 °F 67% 29.70 in 10.0 mi West 12.7 mph - N/A   Clear
2:53 AM 39.0 °F 31.0 °F 28.9 °F 67% 29.70 in 10.0 mi West 13.8 mph - N/A   Clear
3:53 AM 39.9 °F 31.4 °F 28.0 °F 63% 29.70 in 10.0 mi West 16.1 mph - N/A   Clear
4:53 AM 37.0 °F 28.5 °F 28.0 °F 70% 29.72 in 10.0 mi WSW 13.8 mph - N/A   Clear
5:53 AM 37.0 °F 28.5 °F 27.0 °F 67% 29.73 in 10.0 mi West 13.8 mph - N/A   Clear
6:53 AM 36.0 °F 26.7 °F 27.0 °F 70% 29.76 in 10.0 mi West 15.0 mph - N/A   Clear
7:53 AM 39.0 °F 29.9 °F 28.0 °F 65% 29.78 in 10.0 mi West 17.3 mph - N/A   Clear
8:53 AM 42.8 °F 34.5 °F 30.2 °F 61% 29.78 in 10.0 mi West 18.4 mph - N/A   Clear
9:53 AM 48.0 °F - 30.0 °F 50% 29.81 in 10.0 mi WNW 19.6 mph - N/A   Clear
10:53 AM 52.0 °F - 28.9 °F 41% 29.83 in 10.0 mi WNW 20.7 mph - N/A   Clear
11:53 AM 55.9 °F - 28.9 °F 36% 29.83 in 10.0 mi WNW 20.7 mph 28.8 mph 0.00 in   Clear
12:53 PM 57.0 °F - 28.0 °F 33% 29.83 in 10.0 mi WNW 25.3 mph - 0.00 in Rain Light Rain
1:53 PM 57.9 °F - 27.0 °F 31% 29.83 in 10.0 mi WNW 26.5 mph 32.2 mph 0.00 in Rain Light Rain
2:53 PM 57.0 °F - 25.0 °F 29% 29.84 in 10.0 mi NW 26.5 mph 35.7 mph 0.00 in Rain Light Rain
3:53 PM 57.0 °F - 24.1 °F 28% 29.83 in 10.0 mi WNW 20.7 mph 32.2 mph 0.00 in Rain Light Rain
4:53 PM 57.0 °F - 25.0 °F 29% 29.83 in 10.0 mi WNW 18.4 mph 28.8 mph 0.00 in   Partly Cloudy
5:53 PM 57.0 °F - 27.0 °F 32% 29.84 in 10.0 mi WNW 17.3 mph - 0.00 in   Clear
6:53 PM 54.0 °F - 26.1 °F 34% 29.86 in 10.0 mi NNW 15.0 mph - 0.00 in   Clear
7:53 PM 48.9 °F - 27.0 °F 43% 29.87 in 10.0 mi NNW 9.2 mph - N/A   Clear
8:53 PM 45.0 °F 43.5 °F 28.9 °F 53% 29.88 in 10.0 mi North 3.5 mph - N/A   Clear
9:53 PM 43.0 °F 41.3 °F 30.0 °F 60% 29.89 in 10.0 mi South 3.5 mph - N/A   Clear
10:53 PM 44.1 °F 40.8 °F 30.0 °F 58% 29.90 in 10.0 mi SSW 5.8 mph - N/A   Overcast
11:53 PM 44.1 °F 38.6 °F 30.0 °F 58% 29.90 in 10.0 mi SW 10.4 mph - N/A   Overcast